Location: Le Sartre
(44.8050°N, 2.2123°E)
Time: 21:35:19
(UTC+00:00)

Cosmos 2058 Rocket - Pass Details

Date: 15 May 2026
Orbit: 604 x 632 km, 82.5° (Epoch: 10 June)

Event Time Altitude Azimuth Distance (km) Brightness Sun altitude
Exits shadow 22:31:01 72° 249° (WSW) 641 3.0 -23.8°
Maximum altitude 22:31:14 75° 279° (W) 635 3.0 -23.8°
Drops below altitude 10° 22:35:34 10° 5° (N) 1,963 6.5 -24.1°
Sets 22:37:48 0° 8° (N) 2,870 7.5 -24.2°
